Sisseton, SD

12:49 PM CDT on October 23, 2017 (GMT -0500)
Sisseton

Weather History for K8D3 - October, 2014

Change the Weather History Date:

Saturday, October 18, 2014

  Actual Average Record
Temperature  
Mean Temperature 45 °F 46 °F  
Max Temperature 51 °F 56 °F 84 °F (1953)
Min Temperature 39 °F 35 °F 14 °F (1972)
Degree Days  
Heating Degree Days 20 19  
Month to date heating degree days 287 287  
Since 1 July heating degree days 490 532  
Cooling Degree Days 0 0  
Month to date cooling degree days 0 0  
Year to date cooling degree days 442 523  
Moisture  
Dew Point 39 °F    
Average Humidity 82    
Maximum Humidity 93    
Minimum Humidity 71    
Precipitation  
Precipitation 0.00 in 0.07 in 1.11 in (2012)
Month to date precipitation 0.06 1.45  
Year to date precipitation 21.86 20.73  
Snow  
Snow 0.00 in - - ()
Month to date snowfall 0.0  
Since 1 July snowfall 0.0  
Snow Depth 0.00 in    
Sea Level Pressure  
Sea Level Pressure 30.18 in    
Wind  
Wind Speed 8 mph (SW)    
Max Wind Speed 22 mph    
Max Gust Speed 30 mph    
T = Trace of Precipitation, MM = Missing Value Source: NWS Daily Summary

Daily Weather History Graph

Daily Weather History Graph

Search for Another Location

Airport or City:

Trip Planner

Search our weather history database for the weather conditions in past years. The results will help you decide how hot, cold, wet, or windy it might be!

Date:

Astronomy

Oct. 18, 2014 Rise Set
Actual Time 7:48 AM CDT 6:36 PM CDT
Civil Twilight 7:18 AM CDT 7:06 PM CDT
Nautical Twilight 6:43 AM CDT 7:41 PM CDT
Astronomical Twilight 6:09 AM CDT 8:15 PM CDT
Moon 2:33 AM CDT (10/18) 4:10 PM CDT (10/18)
Length of Visible Light 11h 48m
Length of Day
10h 48m
Waning Crescent, 24% of the Moon is Illuminated
Oct 18
Waning Crescent
Oct 23
New
Oct 30
First Quarter
Nov 6
Full
Nov 14
Last Quarter

Hourly Weather History & Observations

Time (CDT) Temp. Windchill Dew Point Humidity Pressure Visibility Wind Dir Wind Speed Gust Speed Precip Events Conditions
12:56 AM 43.0 °F 37.2 °F 37.9 °F 82% 30.23 in - NNE 10.4 mph - N/A   Unknown
1:56 AM 43.0 °F 36.8 °F 37.9 °F 82% 30.23 in - NNW 11.5 mph - N/A   Unknown
2:56 AM 42.1 °F 36.6 °F 37.9 °F 85% 30.23 in - NNW 9.2 mph - N/A   Unknown
3:56 AM 42.1 °F 37.1 °F 37.9 °F 85% 30.25 in - NNW 8.1 mph - N/A   Unknown
4:56 AM 42.1 °F 38.4 °F 37.9 °F 85% 30.25 in - NNW 5.8 mph - N/A   Unknown
5:56 AM 42.1 °F 39.2 °F 37.9 °F 85% 30.26 in - North 4.6 mph - N/A   Unknown
6:56 AM 41.0 °F 37.1 °F 37.9 °F 89% 30.27 in - NNW 5.8 mph - N/A   Unknown
7:56 AM 41.0 °F - 37.9 °F 89% 30.27 in - Calm Calm - N/A   Unknown
8:56 AM 41.0 °F 38.0 °F 37.9 °F 89% 30.27 in - NNW 4.6 mph - N/A   Unknown
9:56 AM 41.0 °F - 37.9 °F 89% 30.26 in - Calm Calm - N/A   Unknown
10:56 AM 41.0 °F 38.0 °F 39.0 °F 93% 30.26 in - SW 4.6 mph - N/A   Unknown
11:56 AM 42.1 °F 37.7 °F 39.0 °F 89% 30.27 in - WSW 6.9 mph - N/A   Unknown
12:56 PM 43.0 °F 39.5 °F 39.0 °F 86% 30.25 in - SSW 5.8 mph - N/A   Unknown
1:56 PM 44.1 °F 40.1 °F 39.0 °F 82% 30.22 in - South 6.9 mph - N/A   Unknown
2:56 PM 46.0 °F 40.6 °F 39.0 °F 76% 30.20 in - South 11.5 mph - N/A   Unknown
3:56 PM 48.9 °F - 39.9 °F 71% 30.16 in - South 12.7 mph - N/A   Unknown
4:56 PM 48.9 °F - 39.9 °F 71% 30.13 in - South 11.5 mph - N/A   Unknown
5:56 PM 48.0 °F - 39.9 °F 74% 30.09 in - SSE 12.7 mph - N/A   Unknown
6:56 PM 44.1 °F 39.0 °F 39.0 °F 82% 30.09 in - SSE 9.2 mph - N/A   Unknown
7:56 PM 43.0 °F 37.2 °F 39.0 °F 86% 30.07 in - South 10.4 mph - N/A   Unknown
8:56 PM 39.9 °F 33.9 °F 37.9 °F 93% 30.06 in - South 9.2 mph - N/A   Unknown
9:56 PM 39.9 °F 34.5 °F 37.9 °F 93% 30.04 in - South 8.1 mph - N/A   Unknown
10:56 PM 42.1 °F 35.7 °F 39.0 °F 89% 30.00 in - South 11.5 mph - N/A   Unknown
11:56 PM 43.0 °F 36.8 °F 39.0 °F 86% 29.97 in - South 11.5 mph - N/A   Unknown